FW9328 Weather Reports


time (UTC)temp
C
wind
direction
speed
KPH
gust
KPH
rain 1hr
cm
rain 24hr
cm
rain mn
cm
humidity
%
barometer
mb
20220812184044 30 259 3.2 9.7 0.00 0.00 0.00 36 1024.8
20220812183541 30 0 3.2 9.7 0.00 0.00 0.00 38 1024.8
20220812183103 30 346 0.0 4.8 0.00 0.00 0.00 38 1024.9
20220812182542 30 0 1.6 8.0 0.00 0.00 0.00 38 1025.0
20220812182043 30 53 1.6 16.1 0.00 0.00 0.00 38 1025.1
20220812181608 30 51 4.8 16.1 0.00 0.00 0.00 37 1025.2
20220812181046 29 96 4.8 14.5 0.00 0.00 0.00 39 1025.1
20220812180545 29 64 4.8 17.7 0.00 0.00 0.00 40 1025.2
20220812180100 29 34 6.4 17.7 0.00 0.00 0.00 39 1025.1
20220812175542 29 32 4.8 16.1 0.00 0.00 0.00 41 1025.2
20220812175043 29 32 3.2 14.5 0.00 0.00 0.00 42 1025.3
20220812174600 28 5 6.4 14.5 0.00 0.00 0.00 41 1025.3
20220812174043 28 349 4.8 12.9 0.00 0.00 0.00 41 1025.3
20220812173540 28 42 4.8 12.9 0.00 0.00 0.00 42 1025.5
20220812173103 28 5 4.8 16.1 0.00 0.00 0.00 42 1025.5
20220812172540 28 54 6.4 16.1 0.00 0.00 0.00 40 1025.6
20220812172046 28 66 4.8 14.5 0.00 0.00 0.00 41 1025.6
20220812171605 28 20 6.4 16.1 0.00 0.00 0.00 40 1025.7
20220812171039 28 35 3.2 16.1 0.00 0.00 0.00 41 1025.7
20220812170546 28 49 6.4 16.1 0.00 0.00 0.00 41 1025.8
20220812170127 28 57 4.8 17.7 0.00 0.00 0.00 41 1025.8
20220812165542 28 20 6.4 17.7 0.00 0.00 0.00 41 1026.0
20220812165043 27 60 4.8 14.5 0.00 0.00 0.00 40 1026.0
20220812164604 27 352 3.2 12.9 0.00 0.00 0.00 41 1026.1
20220812164048 27 51 4.8 12.9 0.00 0.00 0.00 41 1026.0
20220812163542 27 271 6.4 14.5 0.00 0.00 0.00 41 1026.1
20220812163107 27 32 4.8 14.5 0.00 0.00 0.00 43 1026.2
20220812162543 27 345 4.8 14.5 0.00 0.00 0.00 43 1026.1
20220812162044 27 299 4.8 14.5 0.00 0.00 0.00 43 1026.1
20220812161559 27 29 1.6 17.7 0.00 0.00 0.00 44 1026.1
20220812161042 27 352 4.8 17.7 0.00 0.00 0.00 44 1026.2
20220812160544 26 41 1.6 9.7 0.00 0.00 0.00 43 1026.2
20220812160106 26 39 0.0 6.4 0.00 0.00 0.00 45 1026.2
20220812155543 26 323 1.6 14.5 0.00 0.00 0.00 44 1026.3
20220812155042 26 32 6.4 14.5 0.00 0.00 0.00 44 1026.2
20220812154605 26 36 4.8 12.9 0.00 0.00 0.00 44 1026.2
20220812154042 25 18 3.2 11.3 0.00 0.00 0.00 43 1026.1
20220812153542 25 25 0.0 8.0 0.00 0.00 0.00 46 1026.2
20220812153058 25 44 1.6 4.8 0.00 0.00 0.00 48 1026.2
20220812152541 25 0 1.6 4.8 0.00 0.00 0.00 47 1026.2
20220812152042 25 5 0.0 4.8 0.00 0.00 0.00 45 1026.4
20220812151605 25 84 0.0 4.8 0.00 0.00 0.00 46 1026.2
20220812151042 24 105 0.0 4.8 0.00 0.00 0.00 47 1026.2
20220812150542 24 0 0.0 4.8 0.00 0.00 0.00 51 1026.2
20220812150107 23 0 1.6 4.8 0.00 0.00 0.00 48 1026.2
20220812145545 23 117 0.0 4.8 0.00 0.00 0.00 51 1026.2
20220812145043 23 0 0.0 3.2 0.00 0.00 0.00 54 1026.3
20220812144557 22 0 0.0 3.2 0.00 0.00 0.00 52 1026.3
20220812144043 22 0 0.0 3.2 0.00 0.00 0.00 53 1026.3
20220812143552 22 0 0.0 3.2 0.00 0.00 0.00 56 1026.3
20220812143103 21 0 0.0 3.2 0.00 0.00 0.00 55 1026.1
20220812142541 21 0 0.0 1.6 0.00 0.00 0.00 55 1026.0
20220812142042 21 0 0.0 4.8 0.00 0.00 0.00 58 1026.0
20220812141626 21 162 0.0 4.8 0.00 0.00 0.00 57 1026.0
20220812141045 20 0 0.0 4.8 0.00 0.00 0.00 59 1025.9
20220812140546 20 0 0.0 4.8 0.00 0.00 0.00 60 1026.0
20220812140100 20 0 0.0 3.2 0.00 0.00 0.00 67 1026.0
20220812135543 19 0 0.0 1.6 0.00 0.00 0.00 62 1025.9
20220812135051 19 0 0.0 0.0 0.00 0.00 0.00 64 1025.9
20220812134608 18 0 0.0 4.8 0.00 0.00 0.00 63 1025.9
20220812134047 18 0 0.0 4.8 0.00 0.00 0.00 68 1025.8
20220812133543 18 28 0.0 6.4 0.00 0.00 0.00 65 1025.8
20220812133111 18 28 3.2 8.0 0.00 0.00 0.00 65 1025.7
20220812132541 18 0 0.0 9.7 0.00 0.00 0.00 66 1025.7
20220812132041 17 182 4.8 9.7 0.00 0.00 0.00 66 1025.5
20220812131618 17 214 0.0 3.2 0.00 0.00 0.00 69 1025.5
20220812131049 17 232 1.6 3.2 0.00 0.00 0.00 70 1025.6
20220812130541 17 0 0.0 3.2 0.00 0.00 0.00 70 1025.7
20220812130113 17 273 0.0 1.6 0.00 0.00 0.00 69 1025.6
20220812125541 17 0 0.0 1.6 0.00 0.00 0.00 69 1025.7
20220812125045 17 0 0.0 1.6 0.00 0.00 0.00 69 1025.6
20220812124604 17 296 0.0 1.6 0.00 0.00 0.00 68 1025.7
20220812124041 17 0 0.0 1.6 0.00 0.00 0.00 67 1025.6
20220812123544 17 296 0.0 1.6 0.00 0.00 0.00 68 1025.5
20220812123104 17 0 0.0 1.6 0.00 0.00 0.00 69 1025.6
20220812122544 17 0 0.0 3.2 0.00 0.00 0.00 68 1025.5
20220812122044 17 0 0.0 3.2 0.00 0.00 0.00 67 1025.5
20220812121607 17 0 0.0 3.2 0.00 0.00 0.00 67 1025.4
20220812121041 17 276 1.6 3.2 0.00 0.00 0.00 67 1025.2
20220812120543 17 0 0.0 9.7 0.00 0.00 0.00 67 1025.1
20220812120126 17 259 3.2 9.7 0.00 0.00 0.00 67 1025.1
20220812115549 17 292 1.6 6.4 0.00 0.00 0.00 66 1024.9
20220812115040 17 360 0.0 4.8 0.00 0.00 0.00 65 1024.8
20220812114628 17 360 0.0 8.0 0.00 0.00 0.00 65 1024.7
20220812114047 17 360 1.6 8.0 0.00 0.00 0.00 63 1024.6
20220812113543 17 340 3.2 8.0 0.00 0.00 0.00 63 1024.5
20220812113115 17 350 1.6 3.2 0.00 0.00 0.00 63 1024.2
20220812112541 17 360 1.6 3.2 0.00 0.00 0.00 63 1024.1
20220812112048 17 321 1.6 3.2 0.00 0.00 0.00 64 1024.0
20220812111606 17 227 0.0 3.2 0.00 0.00 0.00 63 1023.9
20220812111047 17 0 0.0 1.6 0.00 0.00 0.00 67 1023.8
20220812110541 17 0 0.0 0.0 0.00 0.00 0.00 66 1023.7
20220812110110 17 0 0.0 0.0 0.00 0.00 0.00 61 1023.7
20220812105540 17 0 0.0 1.6 0.00 0.00 0.00 63 1023.7
20220812105041 17 0 0.0 3.2 0.00 0.00 0.00 62 1023.8
20220812104618 17 0 0.0 3.2 0.00 0.00 0.00 63 1023.7
20220812104043 17 227 0.0 1.6 0.00 0.00 0.00 63 1023.7
20220812103545 17 0 0.0 3.2 0.00 0.00 0.00 64 1023.7
20220812103113 17 0 0.0 3.2 0.00 0.00 0.00 62 1023.7
20220812102541 17 0 0.0 3.2 0.00 0.00 0.00 63 1023.7
20220812102041 17 0 0.0 3.2 0.00 0.00 0.00 62 1023.7
20220812101603 17 0 0.0 3.2 0.00 0.00 0.00 64 1023.9
20220812101043 17 0 0.0 1.6 0.00 0.00 0.00 65 1023.9
20220812100540 17 0 0.0 3.2 0.00 0.00 0.00 63 1024.0
20220812100140 18 0 0.0 4.8 0.00 0.00 0.00 62 1024.0
20220812095541 18 335 1.6 4.8 0.00 0.00 0.00 62 1023.8
20220812095041 18 325 0.0 3.2 0.00 0.00 0.00 63 1023.7
20220812094601 18 231 1.6 3.2 0.00 0.00 0.00 59 1023.7
20220812094041 18 231 0.0 3.2 0.00 0.00 0.00 61 1023.6
20220812093541 18 231 0.0 1.6 0.00 0.00 0.00 60 1023.6
20220812093100 18 0 0.0 0.0 0.00 0.00 0.00 62 1023.5
20220812092545 18 0 0.0 1.6 0.00 0.00 0.00 63 1023.4
20220812092041 18 0 0.0 1.6 0.00 0.00 0.00 63 1023.4
20220812091610 18 0 0.0 3.2 0.00 0.00 0.00 62 1023.2
20220812091042 18 0 0.0 3.2 0.00 0.00 0.00 61 1023.2
20220812090542 18 0 0.0 1.6 0.00 0.00 0.00 62 1023.3
20220812090104 18 0 0.0 1.6 0.00 0.00 0.00 60 1023.4
20220812085541 18 0 0.0 3.2 0.00 0.00 0.00 61 1023.4
20220812085041 18 0 0.0 3.2 0.00 0.00 0.00 59 1023.3
20220812084708 18 0 0.0 3.2 0.00 0.00 0.00 60 1023.4
20220812084041 18 231 0.0 3.2 0.00 0.00 0.00 62 1023.3
20220812083541 18 231 0.0 1.6 0.00 0.00 0.00 63 1023.2
20220812083108 18 0 0.0 3.2 0.00 0.00 0.00 63 1023.2
20220812082544 18 0 0.0 3.2 0.00 0.00 0.00 62 1023.0
20220812082044 18 0 0.0 3.2 0.00 0.00 0.00 61 1023.1
20220812081559 19 0 0.0 3.2 0.00 0.00 0.00 61 1023.0
20220812081044 19 0 0.0 3.2 0.00 0.00 0.00 60 1023.0
20220812080542 19 0 0.0 3.2 0.00 0.00 0.00 58 1023.0
20220812080112 19 294 0.0 3.2 0.00 0.00 0.00 59 1023.0
20220812075540 19 294 0.0 3.2 0.00 0.00 0.00 59 1023.0
20220812075043 19 0 0.0 1.6 0.00 0.00 0.00 59 1023.0
20220812074600 19 0 0.0 1.6 0.00 0.00 0.00 58 1023.0
20220812074041 19 294 0.0 1.6 0.00 0.00 0.00 57 1022.9
20220812073543 20 0 0.0 3.2 0.00 0.00 0.00 58 1022.9
20220812073055 20 0 0.0 3.2 0.00 0.00 0.00 58 1023.0
20220812072542 20 0 0.0 1.6 0.00 0.00 0.00 58 1022.9
20220812072043 20 0 0.0 1.6 0.00 0.00 0.00 60 1022.8
20220812071601 20 0 0.0 1.6 0.00 0.00 0.00 59 1022.8
20220812071043 20 294 0.0 1.6 0.00 0.00 0.00 59 1022.7
20220812070543 20 0 0.0 1.6 0.00 0.00 0.00 58 1022.7
20220812070057 20 0 0.0 1.6 0.00 0.00 0.00 59 1022.7
20220812065541 20 0 0.0 1.6 0.00 0.00 0.00 60 1022.8
20220812065038 20 0 0.0 1.6 0.00 0.00 0.00 57 1022.8
20220812064624 21 0 0.0 0.0 0.00 0.00 0.00 56 1022.8
20220812064039 21 0 0.0 0.0 0.00 0.00 0.00 54 1022.8
20220812063541 21 0 0.0 1.6 0.00 0.00 0.00 56 1022.8
20220812063050 21 0 0.0 1.6 0.00 0.00 0.00 55 1022.9
20220812062538 21 294 0.0 0.0 0.00 0.00 0.00 55 1023.0
20220812062042 21 0 0.0 1.6 0.00 0.00 0.00 57 1023.1
20220812061600 21 0 0.0 3.2 0.00 0.00 0.00 57 1023.1
20220812061046 21 0 0.0 3.2 0.00 0.00 0.00 56 1023.2
20220812060542 21 0 0.0 1.6 0.00 0.00 0.00 56 1023.2
20220812060115 21 0 0.0 1.6 0.00 0.00 0.00 56 1023.1
20220812055542 21 0 0.0 3.2 0.00 0.00 0.00 55 1023.1
20220812055044 22 0 0.0 3.2 0.00 0.00 0.00 56 1023.2
20220812054624 22 0 0.0 3.2 0.00 0.00 0.00 55 1023.2
20220812054041 22 294 0.0 1.6 0.00 0.00 0.00 54 1023.2
20220812053541 22 294 0.0 0.0 0.00 0.00 0.00 53 1023.2
20220812053113 22 0 0.0 3.2 0.00 0.00 0.00 53 1023.0
20220812052539 22 0 0.0 3.2 0.00 0.00 0.00 51 1023.0
20220812052039 22 0 0.0 3.2 0.00 0.00 0.00 51 1023.0
20220812051628 22 0 0.0 3.2 0.00 0.00 0.00 51 1022.9
20220812051043 22 0 0.0 3.2 0.00 0.00 0.00 50 1022.8
20220812050545 23 336 0.0 3.2 0.00 0.00 0.00 50 1022.8
20220812050102 23 336 0.0 3.2 0.00 0.00 0.00 50 1022.7
20220812045538 23 0 0.0 3.2 0.00 0.00 0.00 51 1022.7
20220812045040 23 336 0.0 1.6 0.00 0.00 0.00 49 1022.7
20220812044602 23 336 0.0 0.0 0.00 0.00 0.00 49 1022.5
20220812044046 23 0 0.0 1.6 0.00 0.00 0.00 50 1022.5
20220812043544 23 0 0.0 3.2 0.00 0.00 0.00 51 1022.5
20220812043100 23 0 0.0 3.2 0.00 0.00 0.00 51 1022.5
20220812042541 24 0 0.0 0.0 0.00 0.00 0.00 48 1022.5
20220812042049 24 0 0.0 3.2 0.00 0.00 0.00 48 1022.5
20220812041625 24 0 0.0 3.2 0.00 0.00 0.00 49 1022.6
20220812041045 24 282 0.0 3.2 0.00 0.00 0.00 46 1022.5
20220812040544 24 0 0.0 4.8 0.00 0.00 0.00 47 1022.5
20220812040107 24 0 0.0 4.8 0.00 0.00 0.00 47 1022.3
20220812035547 25 0 1.6 4.8 0.00 0.00 0.00 46 1022.3
20220812035043 25 0 0.0 4.8 0.00 0.00 0.00 46 1022.3
20220812034615 25 0 0.0 3.2 0.00 0.00 0.00 45 1022.3
20220812034043 25 172 0.0 3.2 0.00 0.00 0.00 46 1022.4
20220812033544 25 0 0.0 1.6 0.00 0.00 0.00 45 1022.3
20220812033111 25 0 0.0 1.6 0.00 0.00 0.00 46 1022.2
20220812032541 26 0 0.0 1.6 0.00 0.00 0.00 45 1022.2
20220812032046 26 0 0.0 1.6 0.00 0.00 0.00 45 1022.2
20220812031615 26 0 0.0 3.2 0.00 0.00 0.00 44 1022.2
20220812031040 26 0 0.0 3.2 0.00 0.00 0.00 43 1022.1
20220812030541 26 172 0.0 3.2 0.00 0.00 0.00 43 1022.1
20220812030057 26 163 0.0 3.2 0.00 0.00 0.00 43 1022.0
20220812025546 26 156 0.0 4.8 0.00 0.00 0.00 44 1022.0
20220812025043 26 160 0.0 4.8 0.00 0.00 0.00 45 1022.0
20220812024552 26 0 0.0 4.8 0.00 0.00 0.00 48 1021.8
20220812024041 27 0 0.0 4.8 0.00 0.00 0.00 46 1021.8
20220812023540 27 17 0.0 3.2 0.00 0.00 0.00 45 1021.6
20220812023201 27 0 0.0 0.0 0.00 0.00 0.00 45 1021.5
20220812022542 27 0 0.0 1.6 0.00 0.00 0.00 45 1021.4
20220812022041 27 0 0.0 1.6 0.00 0.00 0.00 45 1021.3
20220812021608 28 0 0.0 1.6 0.00 0.00 0.00 47 1021.3
20220812021043 28 0 0.0 1.6 0.00 0.00 0.00 46 1021.2
20220812020539 28 0 0.0 1.6 0.00 0.00 0.00 43 1021.2
20220812020058 28 0 0.0 0.0 0.00 0.00 0.00 41 1021.1
20220812015540 28 0 0.0 1.6 0.00 0.00 0.00 42 1021.1
20220812015043 29 0 0.0 1.6 0.00 0.00 0.00 41 1021.1
20220812014602 29 0 0.0 3.2 0.00 0.00 0.00 41 1021.1
20220812014051 29 0 0.0 3.2 0.00 0.00 0.00 41 1021.0
20220812013543 30 0 0.0 3.2 0.00 0.00 0.00 41 1021.1
20220812013051 30 0 0.0 3.2 0.00 0.00 0.00 40 1021.1
20220812012544 30 0 0.0 3.2 0.00 0.00 0.00 38 1021.0
20220812012044 30 0 0.0 4.8 0.00 0.00 0.00 39 1021.0
20220812011612 30 0 0.0 4.8 0.00 0.00 0.00 39 1021.0
20220812011040 30 0 0.0 3.2 0.00 0.00 0.00 39 1021.1
20220812010543 30 0 0.0 4.8 0.00 0.00 0.00 38 1021.0
20220812010104 31 275 0.0 4.8 0.00 0.00 0.00 42 1021.0
20220812005542 31 258 0.0 4.8 0.00 0.00 0.00 40 1021.0
20220812005040 31 0 0.0 3.2 0.00 0.00 0.00 40 1021.1
20220812004604 31 0 0.0 3.2 0.00 0.00 0.00 40 1021.1
20220812004043 31 0 0.0 3.2 0.00 0.00 0.00 39 1021.3
20220812003544 31 244 0.0 4.8 0.00 0.00 0.00 40 1021.4
20220812003055 31 286 1.6 4.8 0.00 0.00 0.00 38 1021.3
20220812002540 31 287 0.0 6.4 0.00 0.00 0.00 37 1021.3
20220812002045 31 250 1.6 6.4 0.00 0.00 0.00 36 1021.4
20220812001600 32 0 0.0 3.2 0.00 0.00 0.00 38 1021.4
20220812001041 32 266 0.0 3.2 0.00 0.00 0.00 38 1021.4
20220812000544 32 0 0.0 4.8 0.00 0.00 0.00 38 1021.4
20220812000128 32 202 1.6 4.8 0.00 0.00 0.00 38 1021.4
20220811235540 32 236 1.6 3.2 0.00 0.00 0.00 37 1021.6
20220811235043 32 0 0.0 3.2 0.00 0.00 0.00 38 1021.6
20220811234558 32 0 0.0 4.8 0.00 0.00 0.00 38 1021.6
20220811234044 32 265 0.0 4.8 0.00 0.00 0.00 36 1021.6
20220811233552 32 211 0.0 4.8 0.00 0.00 0.00 34 1021.6
20220811233143 32 213 1.6 4.8 0.00 0.00 0.00 37 1021.7
20220811232545 32 237 0.0 3.2 0.00 0.00 0.00 34 1021.8
20220811232046 33 0 0.0 3.2 0.00 0.00 0.00 38 1021.8
20220811231609 33 0 0.0 3.2 0.00 0.00 0.00 33 1021.9
20220811231045 33 309 1.6 3.2 0.00 0.00 0.00 31 1021.9
20220811230544 33 0 0.0 4.8 0.00 0.00 0.00 30 1021.9
20220811230105 33 0 0.0 6.4 0.00 0.00 0.00 29 1021.9
20220811225545 33 0 1.6 6.4 0.00 0.00 0.00 35 1021.9
20220811225043 33 348 0.0 6.4 0.00 0.00 0.00 30 1021.9
20220811224556 34 0 0.0 6.4 0.00 0.00 0.00 34 1021.9
20220811224043 34 47 0.0 4.8 0.00 0.00 0.00 33 1021.9
20220811223550 34 10 1.6 4.8 0.00 0.00 0.00 29 1021.8
20220811223104 33 348 0.0 3.2 0.00 0.00 0.00 30 1021.9
20220811222543 33 72 0.0 8.0 0.00 0.00 0.00 33 1021.9
20220811222047 33 123 1.6 8.0 0.00 0.00 0.00 29 1022.1
20220811221621 33 116 1.6 6.4 0.00 0.00 0.00 32 1022.1
20220811221045 33 36 1.6 6.4 0.00 0.00 0.00 32 1022.1
20220811220542 34 162 0.0 6.4 0.00 0.00 0.00 32 1022.2
20220811220107 34 119 1.6 8.0 0.00 0.00 0.00 29 1022.3
20220811215541 34 47 3.2 8.0 0.00 0.00 0.00 29 1022.4
20220811215040 34 32 0.0 12.9 0.00 0.00 0.00 29 1022.3
20220811214659 34 0 1.6 12.9 0.00 0.00 0.00 32 1022.4
20220811214040 34 42 1.6 8.0 0.00 0.00 0.00 29 1022.5
20220811213548 34 0 3.2 8.0 0.00 0.00 0.00 30 1022.6
20220811213113 33 79 1.6 6.4 0.00 0.00 0.00 33 1022.7
20220811212543 33 119 1.6 8.0 0.00 0.00 0.00 31 1022.7
20220811212043 33 24 4.8 8.0 0.00 0.00 0.00 31 1022.7
20220811211601 33 24 1.6 8.0 0.00 0.00 0.00 29 1022.7
20220811211049 33 39 3.2 11.3 0.00 0.00 0.00 32 1022.8
20220811210547 33 0 1.6 11.3 0.00 0.00 0.00 29 1022.8
20220811210119 33 86 4.8 9.7 0.00 0.00 0.00 30 1022.7
20220811205546 33 44 4.8 9.7 0.00 0.00 0.00 32 1022.7
20220811205046 33 96 3.2 9.7 0.00 0.00 0.00 31 1022.8
20220811204606 33 38 1.6 6.4 0.00 0.00 0.00 34 1023.0
20220811204040 33 10 1.6 12.9 0.00 0.00 0.00 33 1023.0
20220811203546 33 109 6.4 12.9 0.00 0.00 0.00 33 1023.1
20220811203109 33 43 3.2 12.9 0.00 0.00 0.00 35 1023.1
20220811202544 33 101 3.2 12.9 0.00 0.00 0.00 34 1023.3
20220811202042 33 31 3.2 11.3 0.00 0.00 0.00 36 1023.3
20220811201604 33 227 1.6 6.4 0.00 0.00 0.00 36 1023.3
20220811201041 33 0 1.6 6.4 0.00 0.00 0.00 36 1023.5
20220811200541 33 128 3.2 6.4 0.00 0.00 0.00 36 1023.6
20220811200128 33 123 0.0 6.4 0.00 0.00 0.00 36 1023.7
20220811195540 33 0 0.0 6.4 0.00 0.00 0.00 37 1023.8
20220811195040 32 0 0.0 4.8 0.00 0.00 0.00 38 1023.8
20220811194606 32 281 0.0 8.0 0.00 0.00 0.00 37 1024.0
20220811194044 32 0 1.6 11.3 0.00 0.00 0.00 38 1024.1
20220811193542 32 42 3.2 11.3 0.00 0.00 0.00 39 1024.2
20220811193124 32 24 1.6 8.0 0.00 0.00 0.00 37 1024.2
20220811192546 32 292 1.6 9.7 0.00 0.00 0.00 38 1024.2
20220811192048 31 52 3.2 9.7 0.00 0.00 0.00 39 1024.3
20220811191629 31 252 3.2 8.0 0.00 0.00 0.00 37 1024.3
20220811191042 31 0 1.6 8.0 0.00 0.00 0.00 39 1024.4
20220811190547 31 82 3.2 8.0 0.00 0.00 0.00 38 1024.5
20220811190113 31 0 3.2 8.0 0.00 0.00 0.00 35 1024.5
20220811185540 31 24 1.6 11.3 0.00 0.00 0.00 39 1024.6
20220811185044 31 44 4.8 11.3 0.00 0.00 0.00 37 1024.6
20220811184610 31 12 1.6 9.7 0.00 0.00 0.00 38 1024.6